sat.trackr.live / text

‹ back to catalog

STARLINK-5945

NORAD 56018 · 2023-042AJ

PAYLOAD ACTIVE UNKNOWN

§ Identity

Operator
Country
US
Launch date
2023-03-24
Launch site
AFETR
Launch vehicle
Mass (kg)
RCS (m²)

Purposes: comms

External: N2YO · Heavens-Above · Gunter

§ Orbital elements

Epoch: 2026-09-20T19:27:26.652960Z

Period
94.27 min
Inclination
43.0038°
Eccentricity
0.0001694
Mean motion
15.27574961 rev/d
Perigee alt
481.9 km
Apogee alt
484.2 km
Semi-major
6,861.2 km
B*
1.8570e-5
RAAN
23.5467°
Arg perigee
267.7177°
Mean anomaly
92.3481°
Rev number
19,287

§ Raw data

STARLINK-59451 56018U 23042AJ  26263.81072515  .00000249  00000+0  18570-4 0  99982 56018  43.0038  23.5467 0001694 267.7177  92.3481 15.27574961192875

JSON: /api/v1/satellites/56018 · /tle

For live sub-satellite position, see the globe view (requires WebGL).

§ Visibility from observer

Set your observer location to see the next 7 days of passes ≥ 10°. The values pass through the URL so the page stays shareable.

No JS? Fill the form by hand. The geolocation button needs JavaScript.